contact:dominique.lefevre@mio.osupytheas.fr, maurice.libes@osupytheas.fr, didier.mallarino@osupytheas.fr
Project:EMSO http://www.emso-fr.org/EMSO-France
Depth: 2436.0 m
Title:EMSO Ligure Ouest : Data MII capteur MICROCAT
DateTime_Computer,Latitude,Longitude,Temperature,Conductivity,Pressure,DateTime_Instrument
DateTime_Computer,Latitude,Longitude,degC,S m-1,dbar,DateTime_Instrument
2017-12-02T00:02:04Z,42.805,6.029,13.2939,4.59957,2471.942,2017-12-02T02:03:33Z
2017-12-02T00:05:07Z,42.805,6.029,13.2939,4.59956,2471.957,2017-12-02T02:06:36Z
2017-12-02T00:08:10Z,42.805,6.029,13.2939,4.59957,2471.957,2017-12-02T02:09:39Z
2017-12-02T00:11:13Z,42.805,6.029,13.2940,4.59956,2471.957,2017-12-02T02:12:42Z
2017-12-02T00:14:16Z,42.805,6.029,13.2940,4.59957,2471.957,2017-12-02T02:15:44Z
2017-12-02T00:17:19Z,42.805,6.029,13.2942,4.59957,2471.919,2017-12-02T02:18:47Z
2017-12-02T00:20:21Z,42.805,6.029,13.2939,4.59957,2471.964,2017-12-02T02:21:50Z
2017-12-02T00:23:24Z,42.805,6.029,13.2936,4.59958,2471.919,2017-12-02T02:24:53Z
2017-12-02T00:26:27Z,42.805,6.029,13.2937,4.59957,2471.957,2017-12-02T02:27:56Z
2017-12-02T00:29:30Z,42.805,6.029,13.2939,4.59954,2471.957,2017-12-02T02:30:59Z
2017-12-02T00:32:33Z,42.805,6.029,13.2940,4.59956,2471.934,2017-12-02T02:34:02Z
2017-12-02T00:35:36Z,42.805,6.029,13.2940,4.59956,2471.942,2017-12-02T02:37:05Z
2017-12-02T00:38:39Z,42.805,6.029,13.2937,4.59958,2471.934,2017-12-02T02:40:08Z
2017-12-02T00:41:42Z,42.805,6.029,13.2932,4.59957,2471.934,2017-12-02T02:43:10Z
2017-12-02T00:44:45Z,42.805,6.029,13.2939,4.59955,2471.942,2017-12-02T02:46:13Z
2017-12-02T00:47:47Z,42.805,6.029,13.2940,4.59958,2471.957,2017-12-02T02:49:16Z
2017-12-02T00:50:50Z,42.805,6.029,13.2936,4.59956,2471.957,2017-12-02T02:52:19Z
2017-12-02T00:53:53Z,42.805,6.029,13.2936,4.59958,2471.964,2017-12-02T02:55:22Z
2017-12-02T00:56:56Z,42.805,6.029,13.2939,4.59957,2471.979,2017-12-02T02:58:25Z
2017-12-02T00:59:59Z,42.805,6.029,13.2939,4.59962,2471.979,2017-12-02T03:01:28Z
2017-12-02T01:03:02Z,42.805,6.029,13.2940,4.59962,2471.964,2017-12-02T03:04:31Z
2017-12-02T01:06:05Z,42.805,6.029,13.2939,4.59959,2471.942,2017-12-02T03:07:33Z
2017-12-02T01:09:08Z,42.805,6.029,13.2940,4.59961,2472.002,2017-12-02T03:10:36Z
2017-12-02T01:12:10Z,42.805,6.029,13.2937,4.59958,2472.002,2017-12-02T03:13:39Z
2017-12-02T01:15:13Z,42.805,6.029,13.2935,4.59956,2472.002,2017-12-02T03:16:42Z
2017-12-02T01:18:16Z,42.805,6.029,13.2938,4.59959,2471.987,2017-12-02T03:19:45Z
2017-12-02T01:21:19Z,42.805,6.029,13.2940,4.59958,2471.957,2017-12-02T03:22:48Z
2017-12-02T01:24:22Z,42.805,6.029,13.2939,4.59960,2471.964,2017-12-02T03:25:51Z
2017-12-02T01:27:25Z,42.805,6.029,13.2937,4.59958,2471.964,2017-12-02T03:28:54Z
2017-12-02T01:30:28Z,42.805,6.029,13.2938,4.59958,2471.987,2017-12-02T03:31:57Z
2017-12-02T01:33:31Z,42.805,6.029,13.2940,4.59960,2471.987,2017-12-02T03:34:59Z
2017-12-02T01:36:34Z,42.805,6.029,13.2933,4.59961,2472.002,2017-12-02T03:38:02Z
2017-12-02T01:39:36Z,42.805,6.029,13.2937,4.59961,2472.01,2017-12-02T03:41:05Z
2017-12-02T01:42:39Z,42.805,6.029,13.2937,4.59961,2472.01,2017-12-02T03:44:08Z
2017-12-02T01:45:42Z,42.805,6.029,13.2938,4.59961,2472.002,2017-12-02T03:47:11Z
2017-12-02T01:48:45Z,42.805,6.029,13.2940,4.59960,2472.002,2017-12-02T03:50:14Z
2017-12-02T01:51:48Z,42.805,6.029,13.2938,4.59958,2471.979,2017-12-02T03:53:17Z
2017-12-02T01:54:51Z,42.805,6.029,13.2933,4.59958,2471.979,2017-12-02T03:56:20Z
2017-12-02T01:57:54Z,42.805,6.029,13.2933,4.59957,2472.024,2017-12-02T03:59:23Z
2017-12-02T02:00:57Z,42.805,6.029,13.2939,4.59958,2471.987,2017-12-02T04:02:25Z
2017-12-02T02:04:00Z,42.805,6.029,13.2938,4.59956,2472.024,2017-12-02T04:05:28Z
2017-12-02T02:07:02Z,42.805,6.029,13.2935,4.59957,2472.024,2017-12-02T04:08:31Z
2017-12-02T02:10:05Z,42.805,6.029,13.2935,4.59961,2472.024,2017-12-02T04:11:34Z
2017-12-02T02:13:08Z,42.805,6.029,13.2935,4.59963,2472.002,2017-12-02T04:14:37Z
2017-12-02T02:16:11Z,42.805,6.029,13.2937,4.59961,2472.047,2017-12-02T04:17:40Z
2017-12-02T02:19:14Z,42.805,6.029,13.2938,4.59961,2471.979,2017-12-02T04:20:43Z
2017-12-02T02:22:17Z,42.805,6.029,13.2940,4.59960,2472.024,2017-12-02T04:23:46Z
2017-12-02T02:25:20Z,42.805,6.029,13.2937,4.59958,2472.032,2017-12-02T04:26:49Z
2017-12-02T02:28:23Z,42.805,6.029,13.2939,4.59961,2472.024,2017-12-02T04:29:51Z
2017-12-02T02:31:26Z,42.805,6.029,13.2939,4.59961,2472.047,2017-12-02T04:32:54Z
2017-12-02T02:34:28Z,42.805,6.029,13.2940,4.59960,2472.047,2017-12-02T04:35:57Z
2017-12-02T02:37:31Z,42.805,6.029,13.2935,4.59959,2472.032,2017-12-02T04:39:00Z
2017-12-02T02:40:34Z,42.805,6.029,13.2940,4.59961,2472.047,2017-12-02T04:42:03Z
2017-12-02T02:43:37Z,42.805,6.029,13.2933,4.59963,2472.024,2017-12-02T04:45:06Z
2017-12-02T02:46:40Z,42.805,6.029,13.2935,4.59961,2472.032,2017-12-02T04:48:09Z
2017-12-02T02:49:43Z,42.805,6.029,13.2935,4.59961,2472.032,2017-12-02T04:51:12Z
2017-12-02T02:52:46Z,42.805,6.029,13.2933,4.59959,2472.069,2017-12-02T04:54:15Z
2017-12-02T02:55:49Z,42.805,6.029,13.2939,4.59957,2472.069,2017-12-02T04:57:17Z
2017-12-02T02:58:52Z,42.805,6.029,13.2937,4.59957,2472.069,2017-12-02T05:00:20Z
2017-12-02T03:01:54Z,42.805,6.029,13.2937,4.59956,2472.092,2017-12-02T05:03:23Z
2017-12-02T03:04:57Z,42.805,6.029,13.2940,4.59958,2472.069,2017-12-02T05:06:26Z
2017-12-02T03:08:00Z,42.805,6.029,13.2939,4.59956,2472.092,2017-12-02T05:09:29Z
2017-12-02T03:11:03Z,42.805,6.029,13.2935,4.59956,2472.069,2017-12-02T05:12:32Z
2017-12-02T03:14:06Z,42.805,6.029,13.2941,4.59959,2472.092,2017-12-02T05:15:35Z
2017-12-02T03:17:09Z,42.805,6.029,13.2937,4.59959,2472.069,2017-12-02T05:18:38Z
2017-12-02T03:20:12Z,42.805,6.029,13.2945,4.59958,2472.129,2017-12-02T05:21:41Z
2017-12-02T03:23:15Z,42.805,6.029,13.2938,4.59959,2472.069,2017-12-02T05:24:43Z
2017-12-02T03:26:18Z,42.805,6.029,13.2940,4.59959,2472.077,2017-12-02T05:27:46Z
2017-12-02T03:29:20Z,42.805,6.029,13.2939,4.59958,2472.077,2017-12-02T05:30:49Z
2017-12-02T03:32:23Z,42.805,6.029,13.2940,4.59956,2472.055,2017-12-02T05:33:52Z
2017-12-02T03:35:26Z,42.805,6.029,13.2938,4.59957,2472.092,2017-12-02T05:36:55Z
2017-12-02T03:38:29Z,42.805,6.029,13.2938,4.59957,2472.1,2017-12-02T05:39:58Z
2017-12-02T03:41:32Z,42.805,6.029,13.2935,4.59957,2472.1,2017-12-02T05:43:01Z
2017-12-02T03:44:35Z,42.805,6.029,13.2937,4.59958,2472.092,2017-12-02T05:46:04Z
2017-12-02T03:47:38Z,42.805,6.029,13.2942,4.59957,2472.115,2017-12-02T05:49:07Z
2017-12-02T03:50:41Z,42.805,6.029,13.2933,4.59957,2472.1,2017-12-02T05:52:09Z
2017-12-02T03:53:43Z,42.805,6.029,13.2939,4.59956,2472.115,2017-12-02T05:55:12Z
2017-12-02T03:56:46Z,42.805,6.029,13.2939,4.59956,2472.115,2017-12-02T05:58:15Z
2017-12-02T03:59:49Z,42.805,6.029,13.2937,4.59955,2472.115,2017-12-02T06:01:18Z
2017-12-02T04:02:52Z,42.805,6.029,13.2936,4.59957,2472.077,2017-12-02T06:04:21Z
2017-12-02T04:05:55Z,42.805,6.029,13.2936,4.59957,2472.1,2017-12-02T06:07:24Z
2017-12-02T04:08:58Z,42.805,6.029,13.2938,4.59956,2472.137,2017-12-02T06:10:27Z
2017-12-02T04:12:01Z,42.805,6.029,13.2937,4.59957,2472.123,2017-12-02T06:13:30Z
2017-12-02T04:15:04Z,42.805,6.029,13.2935,4.59957,2472.145,2017-12-02T06:16:33Z
2017-12-02T04:18:07Z,42.805,6.029,13.2940,4.59957,2472.137,2017-12-02T06:19:35Z
2017-12-02T04:21:09Z,42.805,6.029,13.2938,4.59956,2472.137,2017-12-02T06:22:38Z
2017-12-02T04:24:12Z,42.805,6.029,13.2939,4.59956,2472.1,2017-12-02T06:25:41Z
2017-12-02T04:27:15Z,42.805,6.029,13.2940,4.59956,2472.137,2017-12-02T06:28:44Z
2017-12-02T04:30:18Z,42.805,6.029,13.2939,4.59955,2472.123,2017-12-02T06:31:47Z
2017-12-02T04:33:21Z,42.805,6.029,13.2940,4.59954,2472.123,2017-12-02T06:34:50Z
2017-12-02T04:36:24Z,42.805,6.029,13.2934,4.59956,2472.145,2017-12-02T06:37:53Z
2017-12-02T04:39:27Z,42.805,6.029,13.2939,4.59956,2472.16,2017-12-02T06:40:56Z
2017-12-02T04:42:30Z,42.805,6.029,13.2939,4.59957,2472.16,2017-12-02T06:43:58Z
2017-12-02T04:45:33Z,42.805,6.029,13.2935,4.59956,2472.16,2017-12-02T06:47:01Z
2017-12-02T04:48:35Z,42.805,6.029,13.2940,4.59957,2472.16,2017-12-02T06:50:04Z
2017-12-02T04:51:38Z,42.805,6.029,13.2937,4.59957,2472.123,2017-12-02T06:53:07Z
2017-12-02T04:54:41Z,42.805,6.029,13.2937,4.59957,2472.145,2017-12-02T06:56:10Z
2017-12-02T04:57:44Z,42.805,6.029,13.2940,4.59958,2472.16,2017-12-02T06:59:13Z
2017-12-02T05:00:47Z,42.805,6.029,13.2939,4.59956,2472.182,2017-12-02T07:02:16Z
2017-12-02T05:03:50Z,42.805,6.029,13.2941,4.59958,2472.182,2017-12-02T07:05:19Z
2017-12-02T05:06:53Z,42.805,6.029,13.2940,4.59957,2472.182,2017-12-02T07:08:22Z
2017-12-02T05:09:56Z,42.805,6.029,13.2935,4.59957,2472.182,2017-12-02T07:11:24Z
2017-12-02T05:12:59Z,42.805,6.029,13.2937,4.59958,2472.205,2017-12-02T07:14:27Z
2017-12-02T05:16:01Z,42.805,6.029,13.2940,4.59958,2472.205,2017-12-02T07:17:30Z
2017-12-02T05:19:04Z,42.805,6.029,13.2943,4.59957,2472.182,2017-12-02T07:20:33Z
2017-12-02T05:22:07Z,42.805,6.029,13.2939,4.59956,2472.168,2017-12-02T07:23:36Z
2017-12-02T05:25:10Z,42.805,6.029,13.2942,4.59957,2472.137,2017-12-02T07:26:39Z
2017-12-02T05:28:13Z,42.805,6.029,13.2934,4.59958,2472.145,2017-12-02T07:29:42Z
2017-12-02T05:31:16Z,42.805,6.029,13.2938,4.59957,2472.168,2017-12-02T07:32:45Z
2017-12-02T05:34:19Z,42.805,6.029,13.2937,4.59957,2472.168,2017-12-02T07:35:48Z
2017-12-02T05:37:22Z,42.805,6.029,13.2939,4.59956,2472.168,2017-12-02T07:38:50Z
2017-12-02T05:40:25Z,42.805,6.029,13.2934,4.59957,2472.182,2017-12-02T07:41:53Z
2017-12-02T05:43:27Z,42.805,6.029,13.2935,4.59957,2472.16,2017-12-02T07:44:56Z
2017-12-02T05:46:30Z,42.805,6.029,13.2936,4.59958,2472.16,2017-12-02T07:47:59Z
2017-12-02T05:49:33Z,42.805,6.029,13.2937,4.59957,2472.182,2017-12-02T07:51:02Z
2017-12-02T05:52:36Z,42.805,6.029,13.2939,4.59958,2472.168,2017-12-02T07:54:05Z
2017-12-02T05:55:39Z,42.805,6.029,13.2939,4.59957,2472.182,2017-12-02T07:57:08Z
2017-12-02T05:58:42Z,42.805,6.029,13.2937,4.59957,2472.205,2017-12-02T08:00:11Z
2017-12-02T06:01:45Z,42.805,6.029,13.2936,4.59957,2472.182,2017-12-02T08:03:14Z
2017-12-02T06:04:48Z,42.805,6.029,13.2938,4.59957,2472.19,2017-12-02T08:06:16Z
2017-12-02T06:07:51Z,42.805,6.029,13.2937,4.59957,2472.16,2017-12-02T08:09:19Z
2017-12-02T06:10:53Z,42.805,6.029,13.2940,4.59957,2472.16,2017-12-02T08:12:22Z
2017-12-02T06:13:56Z,42.805,6.029,13.2938,4.59957,2472.205,2017-12-02T08:15:25Z
2017-12-02T06:16:59Z,42.805,6.029,13.2939,4.59957,2472.16,2017-12-02T08:18:28Z
2017-12-02T06:20:02Z,42.805,6.029,13.2940,4.59956,2472.168,2017-12-02T08:21:31Z
2017-12-02T06:23:05Z,42.805,6.029,13.2939,4.59958,2472.182,2017-12-02T08:24:34Z
2017-12-02T06:26:08Z,42.805,6.029,13.2940,4.59957,2472.19,2017-12-02T08:27:37Z
2017-12-02T06:29:11Z,42.805,6.029,13.2937,4.59957,2472.182,2017-12-02T08:30:40Z
2017-12-02T06:32:14Z,42.805,6.029,13.2935,4.59956,2472.168,2017-12-02T08:33:42Z
2017-12-02T06:35:17Z,42.805,6.029,13.2937,4.59956,2472.182,2017-12-02T08:36:45Z
2017-12-02T06:38:19Z,42.805,6.029,13.2940,4.59955,2472.182,2017-12-02T08:39:48Z
2017-12-02T06:41:22Z,42.805,6.029,13.2941,4.59957,2472.205,2017-12-02T08:42:51Z
2017-12-02T06:44:25Z,42.805,6.029,13.2939,4.59956,2472.182,2017-12-02T08:45:54Z
2017-12-02T06:47:28Z,42.805,6.029,13.2940,4.59956,2472.168,2017-12-02T08:48:57Z
2017-12-02T06:50:31Z,42.805,6.029,13.2935,4.59955,2472.205,2017-12-02T08:52:00Z
2017-12-02T06:53:34Z,42.805,6.029,13.2939,4.59955,2472.182,2017-12-02T08:55:03Z
2017-12-02T06:56:37Z,42.805,6.029,13.2933,4.59956,2472.205,2017-12-02T08:58:06Z
2017-12-02T06:59:40Z,42.805,6.029,13.2937,4.59955,2472.168,2017-12-02T09:01:08Z
2017-12-02T07:02:42Z,42.805,6.029,13.2938,4.59955,2472.168,2017-12-02T09:04:11Z
2017-12-02T07:05:45Z,42.805,6.029,13.2935,4.59956,2472.205,2017-12-02T09:07:14Z
2017-12-02T07:08:48Z,42.805,6.029,13.2939,4.59955,2472.168,2017-12-02T09:10:17Z
2017-12-02T07:11:51Z,42.805,6.029,13.2935,4.59955,2472.19,2017-12-02T09:13:20Z
2017-12-02T07:14:54Z,42.805,6.029,13.2942,4.59954,2472.168,2017-12-02T09:16:23Z
2017-12-02T07:17:57Z,42.805,6.029,13.2934,4.59955,2472.168,2017-12-02T09:19:26Z
2017-12-02T07:21:00Z,42.805,6.029,13.2940,4.59956,2472.16,2017-12-02T09:22:29Z
2017-12-02T07:24:03Z,42.805,6.029,13.2937,4.59956,2472.182,2017-12-02T09:25:32Z
2017-12-02T07:27:06Z,42.805,6.029,13.2937,4.59955,2472.137,2017-12-02T09:28:34Z
2017-12-02T07:30:08Z,42.805,6.029,13.2939,4.59956,2472.168,2017-12-02T09:31:37Z
2017-12-02T07:33:11Z,42.805,6.029,13.2936,4.59955,2472.168,2017-12-02T09:34:40Z
2017-12-02T07:36:14Z,42.805,6.029,13.2939,4.59954,2472.123,2017-12-02T09:37:43Z
2017-12-02T07:39:17Z,42.805,6.029,13.2935,4.59955,2472.145,2017-12-02T09:40:46Z
2017-12-02T07:42:20Z,42.805,6.029,13.2939,4.59953,2472.182,2017-12-02T09:43:49Z
2017-12-02T07:45:23Z,42.805,6.029,13.2934,4.59953,2472.182,2017-12-02T09:46:52Z
2017-12-02T07:48:26Z,42.805,6.029,13.2938,4.59953,2472.205,2017-12-02T09:49:55Z
2017-12-02T07:51:29Z,42.805,6.029,13.2938,4.59953,2472.182,2017-12-02T09:52:58Z
2017-12-02T07:54:32Z,42.805,6.029,13.2936,4.59953,2472.16,2017-12-02T09:56:00Z
2017-12-02T07:57:34Z,42.805,6.029,13.2935,4.59952,2472.182,2017-12-02T09:59:03Z
2017-12-02T08:00:37Z,42.805,6.029,13.2937,4.59953,2472.16,2017-12-02T10:02:06Z
2017-12-02T08:03:40Z,42.805,6.029,13.2939,4.59954,2472.16,2017-12-02T10:05:09Z
2017-12-02T08:06:43Z,42.805,6.029,13.2938,4.59952,2472.182,2017-12-02T10:08:12Z
2017-12-02T08:09:46Z,42.805,6.029,13.2935,4.59951,2472.182,2017-12-02T10:11:15Z
2017-12-02T08:12:49Z,42.805,6.029,13.2934,4.59951,2472.16,2017-12-02T10:14:18Z
2017-12-02T08:15:52Z,42.805,6.029,13.2938,4.59951,2472.123,2017-12-02T10:17:21Z
2017-12-02T08:18:55Z,42.805,6.029,13.2933,4.59951,2472.168,2017-12-02T10:20:24Z
2017-12-02T08:21:58Z,42.805,6.029,13.2932,4.59951,2472.175,2017-12-02T10:23:26Z
2017-12-02T08:25:00Z,42.805,6.029,13.2932,4.59951,2472.16,2017-12-02T10:26:29Z
2017-12-02T08:28:03Z,42.805,6.029,13.2935,4.59950,2472.16,2017-12-02T10:29:32Z
2017-12-02T08:31:06Z,42.805,6.029,13.2937,4.59952,2472.077,2017-12-02T10:32:35Z
2017-12-02T08:34:09Z,42.805,6.029,13.2934,4.59951,2472.16,2017-12-02T10:35:38Z
2017-12-02T08:37:12Z,42.805,6.029,13.2938,4.59950,2472.123,2017-12-02T10:38:41Z
2017-12-02T08:40:15Z,42.805,6.029,13.2935,4.59950,2472.182,2017-12-02T10:41:44Z
2017-12-02T08:43:18Z,42.805,6.029,13.2933,4.59949,2472.16,2017-12-02T10:44:47Z
2017-12-02T08:46:21Z,42.805,6.029,13.2932,4.59949,2472.137,2017-12-02T10:47:50Z
2017-12-02T08:49:24Z,42.805,6.029,13.2939,4.59949,2472.145,2017-12-02T10:50:52Z
2017-12-02T08:52:27Z,42.805,6.029,13.2935,4.59951,2472.123,2017-12-02T10:53:55Z
2017-12-02T08:55:29Z,42.805,6.029,13.2934,4.59950,2472.16,2017-12-02T10:56:58Z
2017-12-02T08:58:32Z,42.805,6.029,13.2932,4.59950,2472.137,2017-12-02T11:00:01Z
2017-12-02T09:01:35Z,42.805,6.029,13.2934,4.59950,2472.115,2017-12-02T11:03:04Z
2017-12-02T09:04:38Z,42.805,6.029,13.2935,4.59949,2472.115,2017-12-02T11:06:07Z
2017-12-02T09:07:41Z,42.805,6.029,13.2935,4.59949,2472.1,2017-12-02T11:09:10Z
2017-12-02T09:10:44Z,42.805,6.029,13.2934,4.59950,2472.115,2017-12-02T11:12:13Z
2017-12-02T09:13:47Z,42.805,6.029,13.2935,4.59948,2472.123,2017-12-02T11:15:16Z
2017-12-02T09:16:50Z,42.805,6.029,13.2933,4.59948,2472.115,2017-12-02T11:18:18Z
2017-12-02T09:19:53Z,42.805,6.029,13.2939,4.59950,2472.092,2017-12-02T11:21:21Z
2017-12-02T09:22:55Z,42.805,6.029,13.2935,4.59949,2472.137,2017-12-02T11:24:24Z
2017-12-02T09:25:58Z,42.805,6.029,13.2934,4.59950,2472.1,2017-12-02T11:27:27Z
2017-12-02T09:29:01Z,42.805,6.029,13.2933,4.59948,2472.1,2017-12-02T11:30:30Z
2017-12-02T09:32:04Z,42.805,6.029,13.2935,4.59948,2472.1,2017-12-02T11:33:33Z
2017-12-02T09:35:07Z,42.805,6.029,13.2933,4.59949,2472.092,2017-12-02T11:36:36Z
2017-12-02T09:38:10Z,42.805,6.029,13.2933,4.59948,2472.069,2017-12-02T11:39:39Z
2017-12-02T09:41:13Z,42.805,6.029,13.2933,4.59950,2472.115,2017-12-02T11:42:42Z
2017-12-02T09:44:16Z,42.805,6.029,13.2935,4.59948,2472.077,2017-12-02T11:45:44Z
2017-12-02T09:47:19Z,42.805,6.029,13.2936,4.59947,2472.092,2017-12-02T11:48:47Z
2017-12-02T09:50:21Z,42.805,6.029,13.2933,4.59948,2472.115,2017-12-02T11:51:50Z
2017-12-02T09:53:24Z,42.805,6.029,13.2933,4.59947,2472.055,2017-12-02T11:54:53Z
2017-12-02T09:56:27Z,42.805,6.029,13.2932,4.59946,2472.115,2017-12-02T11:57:56Z
2017-12-02T09:59:30Z,42.805,6.029,13.2931,4.59947,2472.077,2017-12-02T12:00:59Z
2017-12-02T10:02:33Z,42.805,6.029,13.2930,4.59947,2472.077,2017-12-02T12:04:02Z
2017-12-02T10:05:36Z,42.805,6.029,13.2933,4.59948,2472.115,2017-12-02T12:07:05Z
2017-12-02T10:08:39Z,42.805,6.029,13.2932,4.59947,2472.055,2017-12-02T12:10:08Z
2017-12-02T10:11:42Z,42.805,6.029,13.2933,4.59947,2472.115,2017-12-02T12:13:11Z
2017-12-02T10:14:45Z,42.805,6.029,13.2932,4.59947,2472.069,2017-12-02T12:16:13Z
2017-12-02T10:17:48Z,42.805,6.029,13.2931,4.59947,2472.092,2017-12-02T12:19:16Z
2017-12-02T10:20:50Z,42.805,6.029,13.2935,4.59947,2472.055,2017-12-02T12:22:19Z
2017-12-02T10:23:53Z,42.805,6.029,13.2928,4.59947,2472.069,2017-12-02T12:25:22Z
2017-12-02T10:26:56Z,42.805,6.029,13.2929,4.59946,2472.092,2017-12-02T12:28:25Z
2017-12-02T10:29:59Z,42.805,6.029,13.2933,4.59946,2472.092,2017-12-02T12:31:28Z
2017-12-02T10:33:02Z,42.805,6.029,13.2933,4.59946,2472.077,2017-12-02T12:34:31Z
2017-12-02T10:36:05Z,42.805,6.029,13.2930,4.59947,2472.092,2017-12-02T12:37:34Z
2017-12-02T10:39:08Z,42.805,6.029,13.2935,4.59947,2472.1,2017-12-02T12:40:37Z
2017-12-02T10:42:11Z,42.805,6.029,13.2935,4.59947,2472.077,2017-12-02T12:43:39Z
2017-12-02T10:45:14Z,42.805,6.029,13.2932,4.59946,2472.047,2017-12-02T12:46:42Z
2017-12-02T10:48:16Z,42.805,6.029,13.2931,4.59944,2472.069,2017-12-02T12:49:45Z
2017-12-02T10:51:19Z,42.805,6.029,13.2929,4.59946,2472.069,2017-12-02T12:52:48Z
2017-12-02T10:54:22Z,42.805,6.029,13.2932,4.59945,2472.055,2017-12-02T12:55:51Z
2017-12-02T10:57:25Z,42.805,6.029,13.2932,4.59946,2472.047,2017-12-02T12:58:54Z
2017-12-02T11:00:28Z,42.805,6.029,13.2928,4.59944,2472.047,2017-12-02T13:01:57Z
2017-12-02T11:03:31Z,42.805,6.029,13.2932,4.59944,2472.032,2017-12-02T13:05:00Z
2017-12-02T11:06:34Z,42.805,6.029,13.2935,4.59944,2472.055,2017-12-02T13:08:03Z
2017-12-02T11:09:37Z,42.805,6.029,13.2933,4.59944,2472.024,2017-12-02T13:11:05Z
2017-12-02T11:12:40Z,42.805,6.029,13.2927,4.59944,2472.047,2017-12-02T13:14:08Z
2017-12-02T11:15:42Z,42.805,6.029,13.2932,4.59942,2472.055,2017-12-02T13:17:11Z
2017-12-02T11:18:45Z,42.805,6.029,13.2934,4.59943,2472.002,2017-12-02T13:20:14Z
2017-12-02T11:21:48Z,42.805,6.029,13.2932,4.59943,2472.032,2017-12-02T13:23:17Z
2017-12-02T11:24:51Z,42.805,6.029,13.2932,4.59944,2472.069,2017-12-02T13:26:20Z
2017-12-02T11:27:54Z,42.805,6.029,13.2928,4.59943,2472.032,2017-12-02T13:29:23Z
2017-12-02T11:30:57Z,42.805,6.029,13.2931,4.59944,2472.032,2017-12-02T13:32:26Z
2017-12-02T11:34:00Z,42.805,6.029,13.2930,4.59942,2472.024,2017-12-02T13:35:29Z
2017-12-02T11:37:03Z,42.805,6.029,13.2928,4.59941,2472.047,2017-12-02T13:38:32Z
2017-12-02T11:40:06Z,42.805,6.029,13.2929,4.59942,2472.069,2017-12-02T13:41:34Z
2017-12-02T11:43:08Z,42.805,6.029,13.2927,4.59941,2472.01,2017-12-02T13:44:37Z
2017-12-02T11:46:11Z,42.805,6.029,13.2932,4.59941,2472.047,2017-12-02T13:47:40Z
2017-12-02T11:49:14Z,42.805,6.029,13.2928,4.59941,2472.047,2017-12-02T13:50:43Z
2017-12-02T11:52:17Z,42.805,6.029,13.2930,4.59941,2472.01,2017-12-02T13:53:46Z
2017-12-02T11:55:20Z,42.805,6.029,13.2932,4.59942,2472.024,2017-12-02T13:56:49Z
2017-12-02T11:58:23Z,42.805,6.029,13.2933,4.59942,2472.047,2017-12-02T13:59:52Z
2017-12-02T12:01:26Z,42.805,6.029,13.2928,4.59941,2472.024,2017-12-02T14:02:55Z
2017-12-02T12:04:29Z,42.805,6.029,13.2928,4.59942,2472.047,2017-12-02T14:05:58Z
2017-12-02T12:07:32Z,42.805,6.029,13.2931,4.59942,2471.987,2017-12-02T14:09:00Z
2017-12-02T12:10:34Z,42.805,6.029,13.2929,4.59942,2472.024,2017-12-02T14:12:03Z
2017-12-02T12:13:37Z,42.805,6.029,13.2933,4.59943,2472.024,2017-12-02T14:15:06Z
2017-12-02T12:16:40Z,42.805,6.029,13.2929,4.59944,2472.024,2017-12-02T14:18:09Z
2017-12-02T12:19:43Z,42.805,6.029,13.2928,4.59945,2472.047,2017-12-02T14:21:12Z
2017-12-02T12:22:46Z,42.805,6.029,13.2933,4.59947,2472.01,2017-12-02T14:24:15Z
2017-12-02T12:25:49Z,42.805,6.029,13.2933,4.59948,2472.032,2017-12-02T14:27:18Z
2017-12-02T12:28:52Z,42.805,6.029,13.2933,4.59949,2472.024,2017-12-02T14:30:21Z
2017-12-02T12:31:55Z,42.805,6.029,13.2935,4.59950,2472.024,2017-12-02T14:33:24Z
2017-12-02T12:34:58Z,42.805,6.029,13.2936,4.59949,2472.024,2017-12-02T14:36:26Z
2017-12-02T12:38:01Z,42.805,6.029,13.2931,4.59950,2472.002,2017-12-02T14:39:29Z
2017-12-02T12:41:03Z,42.805,6.029,13.2933,4.59950,2472.024,2017-12-02T14:42:32Z
2017-12-02T12:44:06Z,42.805,6.029,13.2934,4.59950,2472.024,2017-12-02T14:45:35Z
2017-12-02T12:47:09Z,42.805,6.029,13.2933,4.59951,2472.024,2017-12-02T14:48:38Z
2017-12-02T12:50:12Z,42.805,6.029,13.2932,4.59950,2472.047,2017-12-02T14:51:41Z
2017-12-02T12:53:15Z,42.805,6.029,13.2933,4.59951,2472.002,2017-12-02T14:54:44Z
2017-12-02T12:56:18Z,42.805,6.029,13.2934,4.59951,2471.987,2017-12-02T14:57:47Z
2017-12-02T12:59:21Z,42.805,6.029,13.2933,4.59950,2472.032,2017-12-02T15:00:50Z
2017-12-02T13:02:24Z,42.805,6.029,13.2940,4.59951,2472.024,2017-12-02T15:03:52Z
2017-12-02T13:05:27Z,42.805,6.029,13.2936,4.59950,2472.024,2017-12-02T15:06:55Z
2017-12-02T13:08:29Z,42.805,6.029,13.2936,4.59952,2472.032,2017-12-02T15:09:58Z
2017-12-02T13:11:32Z,42.805,6.029,13.2933,4.59952,2472.047,2017-12-02T15:13:01Z
2017-12-02T13:14:35Z,42.805,6.029,13.2935,4.59952,2472.01,2017-12-02T15:16:04Z
2017-12-02T13:17:38Z,42.805,6.029,13.2936,4.59951,2472.01,2017-12-02T15:19:07Z
2017-12-02T13:20:41Z,42.805,6.029,13.2936,4.59953,2472.002,2017-12-02T15:22:10Z
2017-12-02T13:23:44Z,42.805,6.029,13.2933,4.59952,2472.024,2017-12-02T15:25:13Z
2017-12-02T13:26:47Z,42.805,6.029,13.2933,4.59950,2472.024,2017-12-02T15:28:16Z
2017-12-02T13:29:50Z,42.805,6.029,13.2931,4.59951,2472.01,2017-12-02T15:31:18Z
2017-12-02T13:32:53Z,42.805,6.029,13.2933,4.59952,2472.01,2017-12-02T15:34:21Z
2017-12-02T13:35:55Z,42.805,6.029,13.2932,4.59953,2472.002,2017-12-02T15:37:24Z
2017-12-02T13:38:58Z,42.805,6.029,13.2932,4.59953,2472.024,2017-12-02T15:40:27Z
2017-12-02T13:42:01Z,42.805,6.029,13.2936,4.59952,2472.024,2017-12-02T15:43:30Z
2017-12-02T13:45:04Z,42.805,6.029,13.2934,4.59951,2472.047,2017-12-02T15:46:33Z
2017-12-02T13:48:07Z,42.805,6.029,13.2936,4.59952,2472.047,2017-12-02T15:49:36Z
2017-12-02T13:51:10Z,42.805,6.029,13.2931,4.59952,2472.024,2017-12-02T15:52:39Z
2017-12-02T13:54:13Z,42.805,6.029,13.2935,4.59953,2472.024,2017-12-02T15:55:42Z
2017-12-02T13:57:16Z,42.805,6.029,13.2936,4.59952,2472.024,2017-12-02T15:58:45Z
2017-12-02T14:00:19Z,42.805,6.029,13.2933,4.59953,2472.032,2017-12-02T16:01:47Z
2017-12-02T14:03:21Z,42.805,6.029,13.2931,4.59952,2472.069,2017-12-02T16:04:50Z
2017-12-02T14:06:24Z,42.805,6.029,13.2935,4.59953,2472.024,2017-12-02T16:07:53Z
2017-12-02T14:09:27Z,42.805,6.029,13.2933,4.59952,2472.055,2017-12-02T16:10:56Z
2017-12-02T14:12:30Z,42.805,6.029,13.2934,4.59953,2472.055,2017-12-02T16:13:59Z
2017-12-02T14:15:33Z,42.805,6.029,13.2934,4.59952,2472.024,2017-12-02T16:17:02Z
2017-12-02T14:18:36Z,42.805,6.029,13.2933,4.59952,2472.01,2017-12-02T16:20:05Z
2017-12-02T14:21:39Z,42.805,6.029,13.2933,4.59951,2472.047,2017-12-02T16:23:08Z
2017-12-02T14:24:42Z,42.805,6.029,13.2935,4.59952,2472.047,2017-12-02T16:26:11Z
2017-12-02T14:27:45Z,42.805,6.029,13.2934,4.59952,2472.047,2017-12-02T16:29:13Z
2017-12-02T14:30:48Z,42.805,6.029,13.2933,4.59952,2472.047,2017-12-02T16:32:16Z
2017-12-02T14:33:50Z,42.805,6.029,13.2936,4.59952,2472.069,2017-12-02T16:35:19Z
2017-12-02T14:36:53Z,42.805,6.029,13.2933,4.59952,2472.047,2017-12-02T16:38:22Z
2017-12-02T14:39:56Z,42.805,6.029,13.2934,4.59952,2472.024,2017-12-02T16:41:25Z
2017-12-02T14:42:59Z,42.805,6.029,13.2935,4.59952,2472.047,2017-12-02T16:44:28Z
2017-12-02T14:46:02Z,42.805,6.029,13.2933,4.59951,2472.069,2017-12-02T16:47:31Z
2017-12-02T14:49:05Z,42.805,6.029,13.2935,4.59952,2472.047,2017-12-02T16:50:34Z
2017-12-02T14:52:08Z,42.805,6.029,13.2934,4.59953,2472.077,2017-12-02T16:53:37Z
2017-12-02T14:55:11Z,42.805,6.029,13.2939,4.59952,2472.092,2017-12-02T16:56:39Z
2017-12-02T14:58:14Z,42.805,6.029,13.2936,4.59952,2472.055,2017-12-02T16:59:42Z